SL-14 DEB, 45295

Orbit data source: Space-Track

SL-14 DEB, 45295 is space debris in LEO originally from a launch on Thu, 15 Aug 1991 UTC launched from the Plesetsk Missile And Space Complex (PKMTR). Debris objects in space refer to the collection of defunct objects orbiting the Earth. Examples of debris include non-operational satellites, rocket bodies, and fragments generated from explosions, collisions, or faulty payload assembly.

Loading next visibility...
SL-14 DEB details
Identifier
45295, 1991-056AH
Orbit
LEO
Last TLE update3 days ago
Origin
Flag of CISRosgidromet (CIS)
ManufacturerUnknown
MissionSpacecraft
Bus & MotorUnknown
MassUnknown
Launch date (UTC)
1991-08-15 (33 years ago)
Launch vehicleUnknown
Launch site
Plesetsk Missile And Space Complex (PKMTR)
Object type
Payload
Rocket body
Debris
Shape & HBRUnknown
Radar Cross SectionSmall (<0.1 m²)

Expand to show TLE details & history

TLE from 3 days ago
0 SL-14 DEB
1 45295U 91056AH  24358.29227593  .00002587  00000-0  47487-2 0  9991
2 45295  82.5700 122.6056 0090614 184.9270 175.0983 13.38234941235351
Epoch: 2024-12-23T07:00Z
Definitive object data (Epoch: 2024-12-23T07:00:52.64Z)
Latitude0.00002°
Longitude-74.93055°
Altitude1,186.375 km
Speed7.228 km/s
True Right ascension08h 10m 25s
True Declination0° 00' 00"
Sunlit
Object was in full shadow at TLE epoch
Visualization TLE readout
Latitude-76.04882°
Longitude134.27151°
Altitude1,132.295 km
Speed7.291 km/s
Apparent Right ascension21h 27m 35s
Apparent Declination-59° 30' 17"
Sunlit
Object is in daylight
Visualization observer readout
Local Sidereal Time09:12:57
Azimuth185.504° SSW
Elevation-70.276°
Doppler factor1
Orbital elements
Apogee altitude1,180.956 km
Perigee altitude1,045.195 km
Semi-major axis7,491.212 km
Eccentricity0.0090614
Inclination82.57°
RAAN122.6056°
Arg. of periapsis184.927°
True anomaly175.18603°
Mean anomaly175.0983°
Eccentric anomaly175.14227°
Mean motion3.34746 °/min
BSTAR0.0047487
Orbital period107.54 mins
Loading maneuver chart data...
Loading historical data...
Loading historical data...
Loading historical data...
Loading historical data...
Loading historical data...
Loading historical data...
Loading historical data...

SL-14 DEB Visibility forecast

Observer location: undefined°, undefined

Span
Click to sort rows by Start time (UTC) header in descending order
Start Az.
Max El. time (UTC)
Max El. Az.
Max El.
End time (UTC)
End Az.
9 mins2024-12-26 10:31:52.084Z249.975° W2024-12-26 10:35:52.084Z287.581° WNW19.909°2024-12-26 10:40:52.084Z335.686° NNW
11 mins2024-12-26 19:57:52.084Z357.013° N2024-12-26 20:02:52.084Z83.238° E44.331°2024-12-26 20:08:52.084Z168.022° S
6 mins2024-12-26 21:47:52.084Z304.61° NW2024-12-26 21:50:52.084Z275.05° WNW14.733°2024-12-26 21:53:52.084Z247.364° WSW
11 mins2024-12-27 08:01:52.084Z146.479° SSE2024-12-27 08:06:52.084Z86.043° E32.101°2024-12-27 08:12:52.084Z24.264° NE
|